Location: Arroyo de Valdeoliva
(40.1604°N, 4.9878°W)
Time: 11:45:44
(UTC+00:00)

Tiangong - Pass Details

Date: 15 February 2026
Orbit: 381 x 391 km, 41.5° (Epoch: 8 March)

Event Time Altitude Azimuth Distance (km) Brightness Sun altitude
Rises 18:25:46 0° 262° (W) 2,253 4.5 -6.5°
Reaches altitude 10° 18:27:50 10° 264° (W) 1,399 2.5 -6.8°
Maximum altitude 18:31:00 77° 351° (N) 394 -2.1 -7.4°
Enters shadow 18:34:00 11° 78° (ENE) 1,339 -0.1 -8.0°
